Wind_Speed
23 24 23 22 21 20 20 20 19 19 19 18 17 16 16 15 16 18 17 14 12 11 10 8 8 6 6 6 7 8 8 10 11 12 13 13 14 15 15 16 16 17 17
28 28 27 26 26 24 23 23 22 23 22 21 20 19 17 17 18 18 17 15 12 11 10 8 7 6 6 6 7 8 9 10 11 12 14 15 16 17 19 20 21 21 22
29 30 30 29 29 28 27 26 26 26 25 23 22 21 20 19 19 20 18 16 13 12 11 10 8 8 7 8 8 9 11 12 14 14 15 16 17 18 19 21 22 23 25
31 31 31 31 31 31 30 29 29 28 27 25 24 23 22 21 21 21 19 17 15 14 13 12 11 11 10 11 12 12 12 13 14 16 18 18 19 20 21 23 24 25 25
34 34 33 32 33 33 33 32 32 31 29 28 27 25 23 23 24 23 21 19 17 17 16 16 15 14 13 13 14 14 14 15 16 17 18 20 21 22 22 23 24 25 26
37 36 35 34 36 34 34 33 33 32 31 29 28 26 25 25 26 24 22 21 20 19 19 19 18 17 17 16 16 17 18 19 19 20 21 22 23 24 25 25 25 26 26
35 37 37 36 35 34 33 34 33 33 32 30 29 28 27 28 28 26 24 23 22 22 22 22 21 21 20 19 19 20 21 22 23 24 25 26 26 27 27 27 26 26 26
36 36 36 36 37 36 35 35 34 33 32 31 31 31 31 30 29 27 26 25 25 25 25 25 25 24 24 24 24 24 24 25 26 27 29 30 30 29 29 29 28 28 28
37 37 37 37 37 37 38 37 34 34 32 31 32 34 34 33 29 28 27 26 26 27 28 28 28 28 28 28 29 29 28 29 29 30 32 32 33 33 33 32 32 32 31
44 44 43 43 41 39 37 39 38 36 36 34 35 36 36 34 32 31 29 27 27 27 29 31 32 32 32 33 34 34 33 33 33 33 35 36 37 37 37 35 35 35 36
51 50 49 48 45 43 41 38 40 41 40 39 35 36 37 35 34 32 31 28 27 28 30 33 34 35 36 37 38 39 38 37 38 37 38 40 40 40 40 39 39 39 39
40 44 49 52 51 50 46 43 43 43 41 42 37 33 35 36 34 33 32 32 30 30 33 34 35 38 38 41 43 43 42 42 41 41 41 43 44 44 44 43 43 43 43
46 42 40 46 49 49 49 49 46 43 43 41 38 41 46 37 38 36 40 38 39 35 38 38 40 40 42 44 46 46 46 45 44 43 44 46 48 47 47 45 45 45 46
45 47 50 47 45 47 47 50 48 45 43 44 41 39 40 40 37 41 39 45 43 39 45 46 44 46 48 46 49 50 50 47 46 47 48 48 51 51 49 48 48 48 49
40 41 44 47 49 47 46 47 50 46 44 44 43 43 44 42 40 41 39 42 47 45 46 47 50 49 49 51 52 53 54 52 49 50 50 51 51 50 50 50 50 50 50
35 35 38 45 47 47 46 46 46 48 47 45 47 48 50 43 42 42 45 49 51 48 49 50 48 51 54 57 55 55 55 51 50 51 51 52 51 51 51 52 52 52 52
33 32 32 32 37 43 45 45 44 44 43 46 50 55 49 41 41 44 47 52 56 49 52 53 51 51 55 55 57 53 51 50 50 52 51 53 54 53 52 52 52 54 54
34 33 34 34 34 35 39 42 43 43 43 43 44 51 48 42 49 42 47 58 57 52 52 55 52 53 54 53 52 49 51 53 50 50 51 52 53 53 53 52 53 53 53
36 34 34 34 38 39 37 38 41 40 42 42 42 40 45 40 45 49 38 48 47 48 46 47 49 50 49 48 49 51 53 50 47 48 48 51 52 53 51 52 52 52 51
40 37 36 36 35 33 37 38 37 39 40 39 36 37 38 44 40 46 43 45 40 42 44 45 46 47 49 50 53 52 47 46 48 47 47 49 50 50 49 49 49 48 46
33 34 36 38 33 33 32 35 35 35 38 36 33 35 38 47 50 43 39 38 38 39 40 43 46 49 48 48 48 47 48 49 48 46 45 47 48 46 44 45 43 41 39
29 26 25 30 30 32 30 29 29 28 31 29 32 36 36 36 36 34 32 30 33 37 42 46 45 45 46 46 47 48 48 47 46 42 43 42 38 37 36 37 34 34 36
15 18 21 22 24 27 25 21 23 27 29 28 27 25 28 28 27 26 30 34 37 41 43 44 44 44 46 47 49 47 45 44 43 38 38 37 29 30 30 28 28 32 36
13 15 17 19 19 19 21 24 26 25 20 22 24 23 21 23 27 30 35 38 41 41 42 46 46 46 45 44 42 41 38 36 33 27 27 31 24 26 27 26 26 28 32
11 10 16 17 20 19 20 16 22 21 17 12 14 20 24 29 33 35 36 40 41 42 45 43 40 37 33 31 30 29 26 25 23 20 23 28 24 30 29 23 23 24 25
5 7 8 5 4 9 8 6 7 10 13 16 20 24 27 30 35 36 39 41 39 35 28 23 22 22 22 21 22 22 22 22 24 21 26 25 25 32 33 21 23 24 25
Wind_Direction
243 245 248 250 252 255 258 259 261 264 267 270 275 278 279 289 300 305 304 297 294 293 292 295 297 302 305 306 305 303 299 296 295 294 291 288 286 283 281 280 278 277 275
245 245 245 248 252 253 257 261 261 262 264 267 272 275 275 283 292 298 296 290 286 283 282 283 289 295 301 308 310 310 308 305 302 298 297 295 293 289 286 283 281 278 277
246 248 247 247 250 254 256 260 262 261 263 265 268 271 272 278 287 292 290 283 276 272 272 272 273 280 288 294 300 305 307 307 306 304 301 298 295 292 289 284 281 279 278
251 253 249 248 251 254 256 258 260 261 263 263 265 267 269 275 283 288 284 278 271 266 265 267 270 276 283 288 292 295 296 299 301 302 301 300 298 296 292 289 286 283 279
254 254 252 251 254 256 257 255 257 260 261 261 262 263 267 273 281 284 280 274 267 263 262 265 269 274 279 287 294 298 299 299 300 300 299 300 300 297 292 288 284 281 279
255 254 255 256 257 259 257 254 256 259 259 259 260 260 264 272 277 278 274 268 263 259 260 265 269 273 278 283 289 294 298 299 302 303 304 303 302 301 297 292 288 284 280
254 255 256 257 259 261 256 254 254 256 257 257 258 260 263 269 275 275 271 267 263 259 259 263 267 271 275 279 284 289 294 297 300 302 304 305 304 303 300 295 291 288 286
255 256 256 256 259 260 258 257 257 256 255 256 257 259 262 267 271 270 267 263 260 258 259 262 265 270 274 277 280 284 289 294 298 302 304 305 304 302 299 295 290 286 284
259 258 260 259 261 260 258 259 258 253 255 254 258 258 262 267 269 266 264 263 261 260 261 263 266 269 272 275 278 280 284 288 293 299 302 304 305 302 298 294 290 286 282
257 257 258 261 261 260 261 258 257 256 254 255 260 261 262 264 265 263 263 264 265 265 265 266 267 269 271 274 276 278 281 284 287 293 298 301 300 300 297 293 289 285 283
254 255 257 255 257 258 256 255 256 257 257 257 259 260 257 258 260 263 262 261 264 268 267 267 268 271 273 274 274 276 278 281 284 288 293 298 298 296 294 291 288 285 284
254 254 253 255 257 257 256 255 254 257 257 256 257 258 261 258 258 262 266 260 264 270 271 269 272 272 273 274 275 276 278 280 282 286 290 293 294 293 291 288 286 285 284
255 254 253 252 254 254 252 251 252 254 254 254 256 256 256 261 259 263 268 259 263 264 263 265 269 274 276 274 274 276 276 278 281 284 288 291 291 290 287 284 283 283 283
255 255 253 250 252 252 249 249 250 250 252 254 257 258 255 255 253 256 268 260 260 271 270 266 268 267 267 270 272 271 272 274 279 283 286 288 289 288 285 283 283 283 283
257 256 254 249 247 248 248 246 246 248 251 252 255 254 251 249 256 257 265 262 263 272 270 267 273 274 269 271 270 271 271 272 278 282 285 286 285 284 284 283 283 282 282
256 257 256 252 248 247 247 247 248 249 249 251 253 251 250 249 252 259 263 265 262 263 266 268 275 277 276 274 272 271 273 275 278 281 284 284 284 283 283 284 284 285 285
253 253 256 258 254 251 250 249 247 247 250 250 254 263 242 251 255 261 265 269 269 269 274 267 272 280 279 275 275 271 272 276 281 284 288 288 287 286 286 287 286 284 284
255 255 257 256 257 259 255 252 251 251 248 252 253 260 269 246 257 268 273 275 271 271 274 276 273 278 279 278 276 279 280 281 283 287 286 287 286 286 287 286 285 285 285
258 257 255 256 258 257 257 255 253 253 257 258 255 264 265 264 261 255 274 276 278 275 276 278 279 280 280 280 279 279 280 286 286 286 287 286 287 287 288 287 286 285 284
260 261 262 264 260 259 256 255 254 251 251 254 261 266 276 263 264 269 272 276 279 283 282 283 283 282 280 281 282 285 286 286 287 288 289 289 288 288 286 285 284 284 284
261 259 259 257 257 257 257 253 256 255 253 258 265 265 271 275 273 272 277 280 282 282 282 279 277 280 286 289 290 291 290 290 290 292 290 288 286 288 287 285 286 287 287
263 260 256 260 252 256 260 256 253 253 255 259 259 268 273 275 277 278 282 284 283 279 277 280 288 290 291 291 290 291 292 293 292 291 288 288 290 289 286 285 286 288 289
261 262 259 253 255 258 258 254 249 247 249 254 259 272 276 277 280 281 279 278 278 281 286 290 294 295 294 295 295 294 294 294 293 297 295 294 294 288 287 291 292 289 285
257 258 259 260 265 262 258 242 254 253 244 267 265 268 271 274 274 275 277 284 290 293 298 297 296 296 296 297 297 297 297 296 298 303 300 294 304 298 298 304 296 288 284
262 279 277 270 256 276 251 239 250 243 244 241 252 264 271 276 279 284 290 290 295 297 296 295 295 297 300 301 300 302 305 308 310 312 304 306 314 306 310 313 299 291 286
274 301 292 277 176 206 156 177 205 225 245 256 265 272 276 281 287 293 293 295 296 295 297 300 302 306 310 311 313 315 315 315 314 318 307 310 316 312 312 321 316 313 307
Height
3172 3172 3172 3172 3172 3172 3172 3172 3172 3171 3171 3170 3170 3169 3168 3167 3166 3164 3162 3161 3159 3158 3156 3156 3154 3153 3152 3151 3151 3150 3150 3149 3149 3148 3148 3147 3147 3147 3147 3146 3146 3146 3146
3167 3167 3168 3167 3167 3167 3168 3168 3168 3168 3167 3166 3165 3165 3164 3164 3162 3161 3159 3157 3156 3155 3154 3153 3152 3151 3150 3149 3149 3148 3147 3146 3145 3145 3144 3144 3143 3143 3142 3142 3142 3141 3141
3161 3162 3162 3163 3162 3162 3162 3163 3163 3163 3162 3162 3161 3160 3160 3159 3159 3157 3155 3154 3153 3152 3151 3150 3149 3148 3148 3147 3147 3146 3144 3144 3143 3142 3141 3140 3139 3138 3137 3137 3136 3136 3135
3156 3156 3157 3157 3157 3157 3157 3157 3157 3157 3157 3157 3156 3156 3155 3155 3154 3153 3152 3150 3150 3149 3148 3147 3146 3146 3145 3144 3143 3142 3141 3140 3139 3138 3137 3136 3135 3133 3132 3131 3130 3130 3129
3151 3151 3151 3151 3151 3151 3151 3151 3151 3151 3151 3151 3151 3150 3151 3150 3149 3148 3148 3147 3146 3146 3145 3144 3143 3142 3141 3140 3139 3138 3137 3136 3135 3134 3133 3131 3130 3128 3127 3126 3124 3124 3123
3145 3145 3144 3144 3144 3144 3144 3144 3145 3145 3145 3145 3145 3145 3145 3145 3144 3143 3142 3142 3141 3140 3140 3140 3139 3138 3137 3136 3135 3134 3133 3132 3130 3129 3127 3126 3124 3123 3121 3119 3118 3117 3117
3136 3137 3137 3138 3137 3139 3138 3137 3137 3138 3139 3139 3140 3140 3139 3139 3139 3138 3137 3137 3136 3135 3135 3134 3134 3133 3132 3131 3130 3129 3127 3126 3125 3124 3122 3120 3119 3117 3115 3113 3111 3110 3110
3129 3128 3129 3130 3130 3131 3131 3131 3132 3132 3132 3133 3133 3133 3133 3133 3132 3132 3131 3131 3130 3130 3129 3128 3128 3127 3126 3126 3125 3124 3122 3121 3119 3118 3116 3114 3112 3110 3108 3107 3105 3103 3102
3121 3120 3121 3121 3122 3123 3124 3125 3125 3125 3125 3126 3126 3126 3126 3126 3127 3126 3125 3125 3124 3124 3124 3123 3122 3121 3121 3120 3119 3117 3116 3114 3113 3111 3109 3107 3105 3103 3100 3099 3097 3095 3094
3112 3111 3112 3112 3114 3115 3115 3117 3117 3118 3117 3118 3118 3119 3119 3119 3119 3119 3119 3118 3118 3118 3117 3117 3116 3115 3114 3113 3112 3110 3109 3107 3105 3103 3101 3098 3096 3094 3092 3090 3088 3087 3085
3100 3102 3102 3102 3104 3106 3107 3107 3108 3109 3110 3109 3111 3111 3110 3111 3111 3111 3111 3112 3111 3111 3110 3109 3109 3108 3107 3105 3103 3102 3100 3099 3097 3095 3092 3090 3087 3084 3082 3080 3078 3075 3075
3088 3089 3091 3090 3094 3095 3097 3099 3099 3099 3101 3100 3101 3101 3102 3102 3103 3103 3103 3104 3104 3103 3102 3101 3101 3099 3097 3096 3094 3092 3091 3089 3087 3085 3082 3080 3077 3074 3072 3069 3067 3064 3062
3076 3079 3080 3080 3080 3083 3086 3087 3089 3090 3091 3091 3092 3093 3094 3093 3094 3094 3094 3095 3093 3093 3092 3091 3091 3089 3087 3085 3083 3082 3080 3077 3076 3074 3072 3070 3066 3063 3061 3058 3055 3053 3051
3065 3066 3066 3069 3070 3071 3073 3075 3077 3080 3080 3082 3080 3083 3084 3085 3083 3083 3085 3085 3082 3083 3082 3081 3080 3078 3075 3073 3070 3069 3067 3066 3064 3063 3061 3058 3054 3052 3049 3046 3043 3041 3038
3055 3055 3055 3056 3058 3059 3061 3063 3065 3069 3071 3072 3073 3074 3073 3073 3073 3075 3075 3074 3073 3072 3071 3069 3068 3067 3064 3061 3058 3057 3054 3052 3052 3050 3048 3044 3041 3039 3036 3032 3029 3027 3025
3046 3046 3046 3046 3047 3049 3051 3052 3055 3058 3060 3061 3062 3062 3060 3057 3062 3064 3064 3062 3061 3060 3060 3059 3057 3055 3053 3049 3047 3045 3043 3041 3038 3038 3034 3030 3027 3025 3022 3019 3016 3013 3010
3037 3037 3038 3037 3038 3040 3041 3043 3044 3047 3049 3051 3052 3050 3039 3044 3051 3052 3053 3054 3053 3050 3050 3046 3045 3044 3042 3039 3036 3034 3030 3027 3025 3024 3021 3017 3014 3011 3006 3004 3001 2998 2994
3029 3029 3030 3030 3030 3031 3032 3034 3036 3038 3038 3039 3041 3039 3039 3035 3042 3043 3045 3044 3040 3037 3038 3037 3036 3034 3032 3027 3025 3022 3019 3016 3011 3010 3007 3003 3000 2996 2992 2989 2985 2982 2980
3021 3022 3023 3023 3023 3023 3024 3025 3027 3029 3031 3032 3032 3032 3032 3031 3032 3026 3030 3034 3031 3028 3029 3028 3025 3023 3020 3017 3013 3010 3006 3002 3000 2999 2995 2991 2986 2982 2979 2975 2971 2969 2967
3012 3013 3015 3015 3015 3016 3016 3017 3018 3020 3021 3024 3024 3026 3024 3024 3023 3026 3024 3022 3020 3020 3019 3016 3014 3012 3008 3004 3000 2996 2993 2990 2988 2986 2982 2977 2972 2968 2965 2960 2957 2955 2952
3002 3003 3004 3006 3007 3008 3008 3009 3011 3013 3014 3016 3017 3018 3017 3018 3017 3015 3014 3011 3011 3009 3006 3005 3003 2999 2995 2991 2986 2984 2979 2977 2975 2973 2969 2965 2958 2955 2951 2946 2944 2942 2939
2995 2995 2997 2999 2999 3001 3002 3002 3003 3006 3008 3009 3009 3011 3010 3010 3009 3007 3004 3003 3002 2999 2998 2995 2991 2988 2984 2980 2975 2972 2968 2964 2961 2960 2955 2951 2947 2945 2941 2937 2935 2933 2929
2990 2991 2992 2993 2995 2996 2997 2997 2999 3000 3000 3002 3003 3004 3003 3002 3000 2998 2997 2993 2992 2990 2988 2984 2980 2977 2972 2969 2964 2960 2957 2952 2948 2947 2941 2938 2938 2934 2931 2930 2928 2925 2920
2987 2988 2988 2989 2991 2992 2992 2992 2993 2995 2995 2996 2996 2996 2995 2993 2991 2989 2988 2986 2983 2980 2975 2972 2968 2964 2961 2957 2952 2948 2946 2942 2939 2938 2932 2927 2930 2925 2923 2923 2920 2916 2910
2986 2986 2986 2986 2987 2987 2985 2985 2989 2989 2990 2990 2990 2989 2987 2987 2985 2982 2979 2978 2974 2970 2967 2962 2957 2954 2950 2947 2944 2941 2938 2934 2932 2931 2927 2922 2922 2916 2916 2915 2911 2907 2902
2984 2984 2984 2984 2982 2984 2982 2984 2985 2985 2986 2986 2985 2984 2984 2981 2977 2973 2972 2970 2965 2961 2957 2953 2950 2947 2944 2940 2936 2933 2931 2929 2925 2923 2919 2919 2916 2908 2904 2907 2901 2896 2892